Time,TemperatureF,DewpointF,PressureIn,WindDirection,WindDirectionDegrees,WindSpeedMPH,WindSpeedGustMPH,Humidity,HourlyPrecipIn,Conditions,Clouds,dailyrainin,SoftwareType,DateUTC
2013-08-11 00:00:00,67.8,67.8,30.07,WSW,238,0.0,0.0,100,0.00,,,0.00,Wunderground v.1.15,2013-08-11 04:00:00,
2013-08-11 00:05:00,67.6,67.6,30.08,WSW,238,0.0,0.0,100,0.00,,,0.00,Wunderground v.1.15,2013-08-11 04:05:00,
2013-08-11 00:10:00,67.6,67.6,30.08,WSW,238,0.0,0.0,100,0.00,,,0.00,Wunderground v.1.15,2013-08-11 04:10:00,
2013-08-11 00:15:00,67.4,67.4,30.08,WSW,238,0.0,0.0,100,0.00,,,0.00,Wunderground v.1.15,2013-08-11 04:15:00,
2013-08-11 00:20:00,67.4,67.4,30.07,WSW,239,0.0,0.0,100,0.00,,,0.00,Wunderground v.1.15,2013-08-11 04:20:00,
2013-08-11 00:30:00,67.4,67.4,30.08,WSW,238,0.0,0.0,100,0.00,,,0.00,Wunderground v.1.15,2013-08-11 04:30:00,
2013-08-11 00:40:00,67.6,67.6,30.08,WSW,238,0.0,0.0,100,0.00,,,0.00,Wunderground v.1.15,2013-08-11 04:40:00,
2013-08-11 00:50:00,67.8,67.8,30.08,WSW,238,0.0,0.0,100,0.00,,,0.00,Wunderground v.1.15,2013-08-11 04:50:00,
2013-08-11 01:00:00,67.8,67.8,30.07,WSW,238,0.0,0.0,100,0.00,,,0.00,Wunderground v.1.15,2013-08-11 05:00:00,
2013-08-11 01:10:00,67.8,67.8,30.08,WSW,238,0.0,0.0,100,0.00,,,0.00,Wunderground v.1.15,2013-08-11 05:10:00,
2013-08-11 01:20:00,67.8,67.8,30.07,WSW,238,0.0,0.0,100,0.00,,,0.00,Wunderground v.1.15,2013-08-11 05:20:00,
2013-08-11 01:30:00,67.8,67.8,30.07,WSW,238,0.0,0.0,100,0.00,,,0.00,Wunderground v.1.15,2013-08-11 05:30:00,
2013-08-11 01:35:00,67.8,67.8,30.08,WSW,238,0.0,0.0,100,0.00,,,0.00,Wunderground v.1.15,2013-08-11 05:35:00,
2013-08-11 01:45:00,67.8,67.8,30.08,WSW,238,0.0,0.0,100,0.00,,,0.00,Wunderground v.1.15,2013-08-11 05:45:00,
2013-08-11 01:50:00,67.8,67.8,30.08,WSW,238,0.0,0.0,100,0.00,,,0.00,Wunderground v.1.15,2013-08-11 05:50:00,
2013-08-11 02:00:00,67.9,67.9,30.08,WSW,238,0.0,0.0,100,0.00,,,0.00,Wunderground v.1.15,2013-08-11 06:00:00,
2013-08-11 02:05:00,67.9,67.9,30.08,WSW,238,0.0,0.0,100,0.00,,,0.00,Wunderground v.1.15,2013-08-11 06:05:00,
2013-08-11 02:10:00,67.9,67.9,30.08,WSW,238,0.0,0.0,100,0.00,,,0.00,Wunderground v.1.15,2013-08-11 06:10:00,
2013-08-11 02:20:00,67.9,67.9,30.08,WSW,238,0.0,0.0,100,0.00,,,0.00,Wunderground v.1.15,2013-08-11 06:20:00,
2013-08-11 02:30:00,68.1,68.1,30.08,WSW,238,0.0,0.0,100,0.00,,,0.00,Wunderground v.1.15,2013-08-11 06:30:00,
2013-08-11 02:40:00,68.1,68.1,30.08,WSW,238,0.0,0.0,100,0.00,,,0.00,Wunderground v.1.15,2013-08-11 06:40:00,
2013-08-11 02:50:00,67.9,67.9,30.08,WSW,238,0.0,0.0,100,0.00,,,0.00,Wunderground v.1.15,2013-08-11 06:50:00,
2013-08-11 03:00:00,67.9,67.9,30.08,WSW,238,0.0,0.0,100,0.00,,,0.00,Wunderground v.1.15,2013-08-11 07:00:00,
2013-08-11 03:10:00,67.9,67.9,30.08,WSW,238,0.0,0.0,100,0.00,,,0.00,Wunderground v.1.15,2013-08-11 07:10:00,
2013-08-11 03:15:00,67.9,67.9,30.08,WSW,238,0.0,0.0,100,0.00,,,0.00,Wunderground v.1.15,2013-08-11 07:15:00,
2013-08-11 03:20:00,67.9,67.9,30.08,WSW,238,0.0,0.0,100,0.00,,,0.00,Wunderground v.1.15,2013-08-11 07:20:00,
2013-08-11 03:40:00,67.8,67.8,30.08,WSW,238,0.0,0.0,100,0.00,,,0.00,Wunderground v.1.15,2013-08-11 07:40:00,
2013-08-11 03:50:00,67.8,67.8,30.08,WSW,238,0.0,0.0,100,0.00,,,0.00,Wunderground v.1.15,2013-08-11 07:50:00,
2013-08-11 04:00:00,67.8,67.8,30.08,WSW,238,0.0,0.0,100,0.00,,,0.00,Wunderground v.1.15,2013-08-11 08:00:00,
2013-08-11 04:10:00,67.6,67.6,30.08,WSW,238,0.0,0.0,100,0.00,,,0.00,Wunderground v.1.15,2013-08-11 08:10:00,
2013-08-11 04:20:00,67.6,67.6,30.08,WSW,238,0.0,0.0,100,0.00,,,0.00,Wunderground v.1.15,2013-08-11 08:20:00,
2013-08-11 04:30:00,67.6,67.6,30.08,WSW,238,0.0,0.0,100,0.00,,,0.00,Wunderground v.1.15,2013-08-11 08:30:00,
2013-08-11 04:40:00,67.6,67.6,30.08,WSW,238,0.0,0.0,100,0.00,,,0.00,Wunderground v.1.15,2013-08-11 08:40:00,
2013-08-11 04:50:00,67.4,67.4,30.08,WSW,238,0.0,0.0,100,0.00,,,0.00,Wunderground v.1.15,2013-08-11 08:50:00,
2013-08-11 05:00:00,67.3,67.3,30.08,WSW,238,0.0,0.0,100,0.00,,,0.00,Wunderground v.1.15,2013-08-11 09:00:00,
2013-08-11 05:10:00,67.3,67.3,30.08,WSW,238,0.0,0.0,100,0.00,,,0.00,Wunderground v.1.15,2013-08-11 09:10:00,
2013-08-11 05:25:00,67.3,67.3,30.08,WSW,238,0.0,0.0,100,0.00,,,0.00,Wunderground v.1.15,2013-08-11 09:25:00,
2013-08-11 05:30:00,67.3,67.3,30.08,WSW,238,0.0,0.0,100,0.00,,,0.00,Wunderground v.1.15,2013-08-11 09:30:00,
2013-08-11 05:35:00,67.3,67.3,30.08,WSW,238,0.0,0.0,100,0.00,,,0.00,Wunderground v.1.15,2013-08-11 09:35:00,
2013-08-11 05:40:00,67.3,67.3,30.08,WSW,238,0.0,0.0,100,0.00,,,0.00,Wunderground v.1.15,2013-08-11 09:40:00,
2013-08-11 05:50:00,67.3,67.3,30.08,WSW,238,0.0,0.0,100,0.00,,,0.00,Wunderground v.1.15,2013-08-11 09:50:00,
2013-08-11 06:05:00,67.3,67.3,30.08,WSW,238,0.0,0.0,100,0.00,,,0.00,Wunderground v.1.15,2013-08-11 10:05:00,
2013-08-11 06:10:00,67.3,67.3,30.09,WSW,238,0.0,0.0,100,0.00,,,0.00,Wunderground v.1.15,2013-08-11 10:10:00,
2013-08-11 06:25:00,67.1,67.1,30.09,WSW,238,0.0,0.0,100,0.00,,,0.00,Wunderground v.1.15,2013-08-11 10:25:00,
2013-08-11 06:30:00,67.1,67.1,30.09,WSW,238,0.0,0.0,100,0.00,,,0.00,Wunderground v.1.15,2013-08-11 10:30:00,
2013-08-11 06:35:00,66.9,66.9,30.09,WSW,238,0.0,0.0,100,0.00,,,0.00,Wunderground v.1.15,2013-08-11 10:35:00,
2013-08-11 06:40:00,66.9,66.9,30.09,WSW,238,0.0,0.0,100,0.00,,,0.00,Wunderground v.1.15,2013-08-11 10:40:00,
2013-08-11 06:50:00,66.9,66.9,30.09,WSW,238,0.0,0.0,100,0.00,,,0.00,Wunderground v.1.15,2013-08-11 10:50:00,
2013-08-11 06:55:00,66.9,66.9,30.09,WSW,238,0.0,0.0,100,0.00,,,0.00,Wunderground v.1.15,2013-08-11 10:55:00,
2013-08-11 07:00:00,66.9,66.9,30.09,WSW,238,0.0,0.0,100,0.00,,,0.00,Wunderground v.1.15,2013-08-11 11:00:00,
2013-08-11 07:05:00,66.8,66.8,30.10,WSW,238,0.0,0.0,100,0.00,,,0.00,Wunderground v.1.15,2013-08-11 11:05:00,
2013-08-11 07:10:00,66.8,66.8,30.10,WSW,238,0.0,0.0,100,0.00,,,0.00,Wunderground v.1.15,2013-08-11 11:10:00,
2013-08-11 07:30:00,66.9,66.9,30.10,WSW,238,0.0,0.0,100,0.00,,,0.00,Wunderground v.1.15,2013-08-11 11:30:00,
2013-08-11 07:35:00,67.1,67.1,30.10,WSW,238,0.0,0.0,100,0.00,,,0.00,Wunderground v.1.15,2013-08-11 11:35:00,
2013-08-11 07:40:00,67.1,67.1,30.10,WSW,238,0.0,0.0,100,0.00,,,0.00,Wunderground v.1.15,2013-08-11 11:40:00,
2013-08-11 07:50:00,67.1,67.1,30.11,WSW,238,0.0,0.0,100,0.00,,,0.00,Wunderground v.1.15,2013-08-11 11:50:00,
2013-08-11 08:00:00,67.1,67.1,30.11,WSW,238,0.0,0.0,100,0.00,,,0.00,Wunderground v.1.15,2013-08-11 12:00:00,
2013-08-11 08:15:00,67.1,67.1,30.11,WSW,237,0.0,0.0,100,0.00,,,0.00,Wunderground v.1.15,2013-08-11 12:15:00,
2013-08-11 08:25:00,67.4,67.4,30.11,WSW,237,0.0,0.0,100,0.00,,,0.00,Wunderground v.1.15,2013-08-11 12:25:00,
2013-08-11 08:30:00,67.6,67.6,30.11,WSW,237,0.0,0.0,100,0.00,,,0.00,Wunderground v.1.15,2013-08-11 12:30:00,
2013-08-11 08:40:00,67.9,67.6,30.11,WSW,237,0.0,0.0,99,0.00,,,0.00,Wunderground v.1.15,2013-08-11 12:40:00,
2013-08-11 08:45:00,68.3,68.0,30.11,WSW,237,0.0,0.0,99,0.00,,,0.00,Wunderground v.1.15,2013-08-11 12:45:00,
2013-08-11 08:55:00,68.9,68.6,30.11,WSW,237,0.0,0.0,99,0.00,,,0.00,Wunderground v.1.15,2013-08-11 12:55:00,
2013-08-11 09:00:00,68.9,68.6,30.12,WSW,237,0.0,0.0,99,0.00,,,0.00,Wunderground v.1.15,2013-08-11 13:00:00,
2013-08-11 09:10:00,68.9,68.3,30.12,WSW,237,0.0,0.0,98,0.00,,,0.00,Wunderground v.1.15,2013-08-11 13:10:00,
2013-08-11 09:20:00,69.1,68.5,30.12,WSW,237,0.0,0.0,98,0.00,,,0.00,Wunderground v.1.15,2013-08-11 13:20:00,
2013-08-11 09:25:00,69.1,68.5,30.11,WSW,237,0.0,0.0,98,0.00,,,0.00,Wunderground v.1.15,2013-08-11 13:25:00,
2013-08-11 09:31:00,69.3,68.4,30.11,WSW,237,0.0,0.0,97,0.00,,,0.00,Wunderground v.1.15,2013-08-11 13:31:00,
2013-08-11 09:45:00,69.6,68.7,30.11,WSW,237,0.0,1.0,97,0.00,,,0.00,Wunderground v.1.15,2013-08-11 13:45:00,
2013-08-11 09:55:00,69.8,68.9,30.11,WSW,237,0.0,0.0,97,0.24,,,0.03,Wunderground v.1.15,2013-08-11 13:55:00,
2013-08-11 10:05:00,69.6,69.0,30.11,SW,236,0.0,0.0,98,0.09,,,0.04,Wunderground v.1.15,2013-08-11 14:05:00,
2013-08-11 10:10:00,69.6,69.0,30.11,SW,236,0.0,0.0,98,0.07,,,0.05,Wunderground v.1.15,2013-08-11 14:10:00,
2013-08-11 10:20:00,69.6,69.0,30.11,SW,236,0.0,0.0,98,0.16,,,0.07,Wunderground v.1.15,2013-08-11 14:20:00,
2013-08-11 10:30:00,69.9,69.6,30.11,SW,235,0.0,0.0,99,0.06,,,0.07,Wunderground v.1.15,2013-08-11 14:30:00,
2013-08-11 10:35:00,70.4,70.1,30.11,SW,235,0.0,0.0,99,0.04,,,0.07,Wunderground v.1.15,2013-08-11 14:35:00,
2013-08-11 10:45:00,70.9,70.3,30.11,SW,236,0.0,0.0,98,0.00,,,0.07,Wunderground v.1.15,2013-08-11 14:45:00,
2013-08-11 10:50:00,70.6,70.0,30.11,SW,236,0.0,0.0,98,0.00,,,0.07,Wunderground v.1.15,2013-08-11 14:50:00,
2013-08-11 11:00:00,70.8,70.2,30.11,SSW,196,1.0,3.0,98,0.00,,,0.07,Wunderground v.1.15,2013-08-11 15:00:00,
2013-08-11 11:05:00,70.9,70.3,30.11,South,179,1.0,3.0,98,0.00,,,0.07,Wunderground v.1.15,2013-08-11 15:05:00,
2013-08-11 11:25:00,72.1,71.5,30.11,SSW,202,1.0,2.0,98,0.00,,,0.07,Wunderground v.1.15,2013-08-11 15:25:00,
2013-08-11 11:30:00,72.1,71.2,30.11,South,189,2.0,6.0,97,0.00,,,0.08,Wunderground v.1.15,2013-08-11 15:30:00,
2013-08-11 11:40:00,72.7,71.5,30.11,SSW,206,3.0,3.0,96,0.00,,,0.08,Wunderground v.1.15,2013-08-11 15:40:00,
2013-08-11 11:50:00,73.5,71.7,30.10,South,181,2.0,6.0,94,0.00,,,0.08,Wunderground v.1.15,2013-08-11 15:50:00,
2013-08-11 12:00:00,73.9,71.1,30.10,SSW,212,3.0,3.0,91,0.00,,,0.08,Wunderground v.1.15,2013-08-11 16:00:00,
2013-08-11 12:10:00,73.9,70.5,30.10,SSW,194,4.0,4.0,89,0.00,,,0.08,Wunderground v.1.15,2013-08-11 16:10:00,
2013-08-11 12:20:00,74.4,70.6,30.10,SSW,198,5.0,7.0,88,0.00,,,0.08,Wunderground v.1.15,2013-08-11 16:20:00,
2013-08-11 12:25:00,74.4,70.9,30.10,SSW,200,5.0,7.0,89,0.00,,,0.08,Wunderground v.1.15,2013-08-11 16:25:00,
2013-08-11 12:30:00,74.4,70.6,30.10,SSW,196,4.0,4.0,88,0.00,,,0.08,Wunderground v.1.15,2013-08-11 16:30:00,
2013-08-11 12:40:00,73.9,70.5,30.09,SSW,208,3.0,6.0,89,0.00,,,0.08,Wunderground v.1.15,2013-08-11 16:40:00,
2013-08-11 12:50:00,73.2,70.4,30.09,SW,229,6.0,6.0,91,0.00,,,0.08,Wunderground v.1.15,2013-08-11 16:50:00,
2013-08-11 13:05:00,73.7,71.9,30.09,SW,215,3.0,5.0,94,0.00,,,0.09,Wunderground v.1.15,2013-08-11 17:05:00,
2013-08-11 13:10:00,73.7,71.9,30.10,SW,215,3.0,4.0,94,0.00,,,0.09,Wunderground v.1.15,2013-08-11 17:10:00,
2013-08-11 13:15:00,74.0,72.2,30.09,SSW,204,4.0,4.0,94,0.00,,,0.09,Wunderground v.1.15,2013-08-11 17:15:00,
2013-08-11 13:20:00,74.4,72.2,30.09,SSW,203,4.0,5.0,93,0.00,,,0.09,Wunderground v.1.15,2013-08-11 17:20:00,
2013-08-11 13:35:00,74.4,71.6,30.08,WSW,245,4.0,4.0,91,0.00,,,0.09,Wunderground v.1.15,2013-08-11 17:35:00,
2013-08-11 13:40:00,74.9,72.1,30.08,South,187,4.0,5.0,91,0.00,,,0.09,Wunderground v.1.15,2013-08-11 17:40:00,
2013-08-11 13:45:00,75.3,71.8,30.08,SW,227,4.0,5.0,89,0.00,,,0.09,Wunderground v.1.15,2013-08-11 17:45:00,
2013-08-11 14:00:00,76.1,72.6,30.08,SW,221,5.0,5.0,89,0.00,,,0.09,Wunderground v.1.15,2013-08-11 18:00:00,
2013-08-11 14:15:00,75.6,70.8,30.07,SW,225,6.0,6.0,85,0.00,,,0.09,Wunderground v.1.15,2013-08-11 18:15:00,
2013-08-11 14:20:00,75.4,70.9,30.06,SW,228,5.0,5.0,86,0.00,,,0.09,Wunderground v.1.15,2013-08-11 18:20:00,
2013-08-11 14:30:00,76.3,71.8,30.06,WSW,240,5.0,9.0,86,0.00,,,0.09,Wunderground v.1.15,2013-08-11 18:30:00,
2013-08-11 14:40:00,77.2,72.3,30.06,SW,215,5.0,8.0,85,0.00,,,0.09,Wunderground v.1.15,2013-08-11 18:40:00,
2013-08-11 14:55:00,77.6,72.7,30.05,SSW,209,3.0,8.0,85,0.00,,,0.09,Wunderground v.1.15,2013-08-11 18:55:00,
2013-08-11 15:01:00,78.3,72.0,30.05,SW,224,4.0,4.0,81,0.00,,,0.09,Wunderground v.1.15,2013-08-11 19:01:00,
2013-08-11 15:10:00,78.5,71.8,30.04,SSW,202,5.0,5.0,80,0.00,,,0.09,Wunderground v.1.15,2013-08-11 19:10:00,
2013-08-11 15:15:00,78.5,72.2,30.04,SSW,208,4.0,4.0,81,0.00,,,0.09,Wunderground v.1.15,2013-08-11 19:15:00,
2013-08-11 15:20:00,77.9,71.6,30.04,SW,232,3.0,4.0,81,0.00,,,0.09,Wunderground v.1.15,2013-08-11 19:20:00,
2013-08-11 15:30:00,78.8,72.5,30.04,SW,232,3.0,5.0,81,0.00,,,0.09,Wunderground v.1.15,2013-08-11 19:30:00,
2013-08-11 15:45:00,79.8,71.9,30.04,WSW,248,5.0,9.0,77,0.00,,,0.09,Wunderground v.1.15,2013-08-11 19:45:00,
2013-08-11 15:55:00,79.0,71.2,30.03,South,189,5.0,5.0,77,0.00,,,0.09,Wunderground v.1.15,2013-08-11 19:55:00,
2013-08-11 16:00:00,79.2,72.1,30.03,South,184,5.0,5.0,79,0.00,,,0.09,Wunderground v.1.15,2013-08-11 20:00:00,
2013-08-11 16:06:00,79.0,71.2,30.03,SW,216,4.0,6.0,77,0.00,,,0.09,Wunderground v.1.15,2013-08-11 20:06:00,
2013-08-11 16:15:00,80.5,72.2,30.03,SSW,198,5.0,7.0,76,0.00,,,0.09,Wunderground v.1.15,2013-08-11 20:15:00,
2013-08-11 16:20:00,80.7,72.4,30.03,SW,224,5.0,5.0,76,0.00,,,0.09,Wunderground v.1.15,2013-08-11 20:20:00,
2013-08-11 16:30:00,80.9,72.2,30.02,SSW,192,3.0,3.0,75,0.00,,,0.09,Wunderground v.1.15,2013-08-11 20:30:00,
2013-08-11 16:40:00,81.6,73.3,30.02,SSW,193,5.0,5.0,76,0.00,,,0.09,Wunderground v.1.15,2013-08-11 20:40:00,
2013-08-11 16:50:00,80.5,72.2,30.01,South,191,3.0,4.0,76,0.00,,,0.09,Wunderground v.1.15,2013-08-11 20:50:00,
2013-08-11 17:05:00,80.9,71.8,30.02,SSW,211,4.0,6.0,74,0.00,,,0.09,Wunderground v.1.15,2013-08-11 21:05:00,
2013-08-11 17:10:00,81.2,72.5,30.02,SSW,194,2.0,2.0,75,0.00,,,0.09,Wunderground v.1.15,2013-08-11 21:10:00,
2013-08-11 17:15:00,81.6,72.9,30.02,SSW,210,2.0,4.0,75,0.00,,,0.09,Wunderground v.1.15,2013-08-11 21:15:00,
2013-08-11 17:21:00,81.1,71.6,30.02,SSW,196,4.0,6.0,73,0.00,,,0.09,Wunderground v.1.15,2013-08-11 21:21:00,
2013-08-11 17:30:00,80.1,70.7,30.02,SSW,193,6.0,8.0,73,0.00,,,0.09,Wunderground v.1.15,2013-08-11 21:30:00,
2013-08-11 17:40:00,80.7,71.6,30.02,SSW,192,5.0,6.0,74,0.00,,,0.09,Wunderground v.1.15,2013-08-11 21:40:00,
2013-08-11 17:50:00,80.5,71.0,30.02,SSW,203,3.0,6.0,73,0.00,,,0.09,Wunderground v.1.15,2013-08-11 21:50:00,
2013-08-11 18:05:00,79.0,70.0,30.01,SW,216,3.0,3.0,74,0.00,,,0.09,Wunderground v.1.15,2013-08-11 22:05:00,
2013-08-11 18:10:00,78.8,70.2,30.02,SSW,208,2.0,2.0,75,0.00,,,0.09,Wunderground v.1.15,2013-08-11 22:10:00,
2013-08-11 18:25:00,78.3,70.9,30.02,SSW,212,0.0,1.0,78,0.00,,,0.09,Wunderground v.1.15,2013-08-11 22:25:00,
2013-08-11 18:40:00,77.9,71.2,30.01,SSW,212,0.0,0.0,80,0.00,,,0.09,Wunderground v.1.15,2013-08-11 22:40:00,
2013-08-11 18:50:00,77.7,72.1,30.01,SSW,212,0.0,0.0,83,0.00,,,0.09,Wunderground v.1.15,2013-08-11 22:50:00,
2013-08-11 18:55:00,77.4,71.8,30.02,SSW,211,0.0,0.0,83,0.00,,,0.09,Wunderground v.1.15,2013-08-11 22:55:00,
2013-08-11 19:00:00,77.0,71.4,30.02,SSW,207,0.0,0.0,83,0.00,,,0.09,Wunderground v.1.15,2013-08-11 23:00:00,
2013-08-11 19:05:00,76.7,71.1,30.02,SSW,203,0.0,0.0,83,0.00,,,0.09,Wunderground v.1.15,2013-08-11 23:05:00,
2013-08-11 19:20:00,76.1,70.9,30.02,SSW,197,1.0,1.0,84,0.00,,,0.09,Wunderground v.1.15,2013-08-11 23:20:00,
2013-08-11 19:30:00,76.0,71.2,30.02,SSW,199,0.0,0.0,85,0.00,,,0.09,Wunderground v.1.15,2013-08-11 23:30:00,
2013-08-11 19:40:00,75.8,71.0,30.03,SSW,193,1.0,1.0,85,0.00,,,0.09,Wunderground v.1.15,2013-08-11 23:40:00,
2013-08-11 19:45:00,75.6,70.8,30.02,SSW,196,0.0,1.0,85,0.00,,,0.09,Wunderground v.1.15,2013-08-11 23:45:00,
2013-08-11 19:55:00,75.3,70.8,30.02,SSW,196,0.0,0.0,86,0.00,,,0.09,Wunderground v.1.15,2013-08-11 23:55:00,
2013-08-11 20:00:00,75.1,70.6,30.02,SSW,196,0.0,0.0,86,0.00,,,0.09,Wunderground v.1.15,2013-08-12 00:00:00,
2013-08-11 20:10:00,74.7,70.6,30.03,SSW,196,0.0,0.0,87,0.00,,,0.09,Wunderground v.1.15,2013-08-12 00:10:00,
2013-08-11 20:20:00,74.4,70.6,30.03,SW,220,1.0,1.0,88,0.00,,,0.09,Wunderground v.1.15,2013-08-12 00:20:00,
2013-08-11 20:30:00,74.0,70.6,30.03,SW,219,0.0,0.0,89,0.00,,,0.09,Wunderground v.1.15,2013-08-12 00:30:00,
2013-08-11 20:40:00,73.7,70.6,30.03,SW,219,0.0,0.0,90,0.00,,,0.09,Wunderground v.1.15,2013-08-12 00:40:00,
2013-08-11 20:50:00,73.3,70.2,30.03,SW,219,0.0,0.0,90,0.00,,,0.09,Wunderground v.1.15,2013-08-12 00:50:00,
2013-08-11 21:00:00,73.2,70.4,30.04,SW,219,0.0,0.0,91,0.00,,,0.09,Wunderground v.1.15,2013-08-12 01:00:00,
2013-08-11 21:10:00,72.7,70.2,30.04,SW,219,0.0,0.0,92,0.00,,,0.09,Wunderground v.1.15,2013-08-12 01:10:00,
2013-08-11 21:20:00,72.5,70.4,30.03,South,182,0.0,0.0,93,0.00,,,0.09,Wunderground v.1.15,2013-08-12 01:20:00,
2013-08-11 21:25:00,72.5,70.4,30.03,South,182,0.0,0.0,93,0.00,,,0.09,Wunderground v.1.15,2013-08-12 01:25:00,
2013-08-11 21:30:00,72.5,70.4,30.03,South,182,0.0,0.0,93,0.00,,,0.09,Wunderground v.1.15,2013-08-12 01:30:00,
2013-08-11 21:35:00,72.5,70.4,30.04,South,182,0.0,0.0,93,0.00,,,0.09,Wunderground v.1.15,2013-08-12 01:35:00,
2013-08-11 21:45:00,72.5,70.7,30.04,South,182,0.0,0.0,94,0.00,,,0.09,Wunderground v.1.15,2013-08-12 01:45:00,
2013-08-11 21:55:00,72.5,70.7,30.05,South,182,0.0,0.0,94,0.00,,,0.09,Wunderground v.1.15,2013-08-12 01:55:00,
2013-08-11 22:05:00,72.5,70.7,30.05,South,182,0.0,0.0,94,0.00,,,0.09,Wunderground v.1.15,2013-08-12 02:05:00,
2013-08-11 22:10:00,72.5,70.7,30.06,South,182,0.0,0.0,94,0.00,,,0.09,Wunderground v.1.15,2013-08-12 02:10:00,
2013-08-11 22:20:00,72.5,70.7,30.06,South,182,0.0,0.0,94,0.00,,,0.09,Wunderground v.1.15,2013-08-12 02:20:00,
2013-08-11 22:25:00,72.3,70.8,30.06,WSW,240,0.0,0.0,95,0.00,,,0.09,Wunderground v.1.15,2013-08-12 02:25:00,
2013-08-11 22:30:00,72.1,70.0,30.06,WSW,240,0.0,0.0,93,0.30,,,0.11,Wunderground v.1.15,2013-08-12 02:30:00,
2013-08-11 22:40:00,71.6,69.8,30.05,WSW,244,0.0,0.0,94,0.21,,,0.21,Wunderground v.1.15,2013-08-12 02:40:00,
2013-08-11 22:45:00,71.3,69.8,30.06,WSW,244,0.0,0.0,95,0.69,,,0.25,Wunderground v.1.15,2013-08-12 02:45:00,
2013-08-11 22:50:00,71.1,69.6,30.06,WSW,243,0.0,0.0,95,2.63,,,0.41,Wunderground v.1.15,2013-08-12 02:50:00,
2013-08-11 22:55:00,70.9,69.4,30.05,WSW,243,0.0,0.0,95,0.60,,,0.52,Wunderground v.1.15,2013-08-12 02:55:00,
2013-08-11 23:05:00,70.9,69.7,30.05,WSW,243,0.0,0.0,96,0.09,,,0.54,Wunderground v.1.15,2013-08-12 03:05:00,
2013-08-11 23:20:00,70.9,70.0,30.05,SSW,205,1.0,2.0,97,0.06,,,0.55,Wunderground v.1.15,2013-08-12 03:20:00,
2013-08-11 23:25:00,70.8,69.9,30.05,SSW,202,1.0,2.0,97,0.32,,,0.57,Wunderground v.1.15,2013-08-12 03:25:00,
2013-08-11 23:35:00,70.6,69.7,30.05,SSW,200,1.0,3.0,97,0.21,,,0.66,Wunderground v.1.15,2013-08-12 03:35:00,
2013-08-11 23:40:00,70.4,69.8,30.05,SSW,200,0.0,0.0,98,1.98,,,0.73,Wunderground v.1.15,2013-08-12 03:40:00,
2013-08-11 23:45:00,70.4,69.8,30.05,SSW,200,0.0,0.0,98,0.11,,,0.73,Wunderground v.1.15,2013-08-12 03:45:00,
2013-08-11 23:50:00,70.4,69.8,30.05,SSW,201,0.0,3.0,98,0.06,,,0.73,Wunderground v.1.15,2013-08-12 03:50:00,